This is the latest recevied weather packets stored in our database for station/object OM1ATS-6. If no packets are shown the sender has not sent any weather packets the latest 10 day(s).
| Time | Temp. | Humidity | Pressure | Rain* | Wind** | Luminosity | Snow |
|---|---|---|---|---|---|---|---|
| 1777555930 | 17.78° C | 26% | 1030.7 hPa | - | - | - | - |
| 1777555330 | 17.78° C | 27% | 1030.7 hPa | - | - | - | - |
| 1777554430 | 17.22° C | 28% | 1031.3 hPa | - | - | - | - |
| 1777554129 | 17.22° C | 28% | 1031.3 hPa | - | - | - | - |
| 1777553830 | 17.22° C | 28% | 1031.4 hPa | - | - | - | - |
| 1777553530 | 17.22° C | 28% | 1031.4 hPa | - | - | - | - |
| 1777552630 | 17.78° C | 28% | 1031.4 hPa | - | - | - | - |
| 1777552330 | 17.78° C | 28% | 1031.4 hPa | - | - | - | - |
| 1777552030 | 17.78° C | 28% | 1031.4 hPa | - | - | - | - |
| 1777550530 | 16.67° C | 29% | 1030.8 hPa | - | - | - | - |
| 1777550229 | 16.11° C | 29% | 1030.6 hPa | - | - | - | - |
| 1777549930 | 16.11° C | 29% | 1030.6 hPa | - | - | - | - |
| 1777547830 | 16.67° C | 29% | 1030.7 hPa | - | - | - | - |
| 1777547230 | 16.11° C | 30% | 1030.7 hPa | - | - | - | - |
| 1777546330 | 16.11° C | 31% | 1031.3 hPa | - | - | - | - |
| 1777546030 | 16.11° C | 30% | 1031.3 hPa | - | - | - | - |
| 1777545730 | 15.56° C | 31% | 1031.3 hPa | - | - | - | - |
| 1777545430 | 15.56° C | 31% | 1031.5 hPa | - | - | - | - |
| 1777545129 | 15° C | 31% | 1031.5 hPa | - | - | - | - |
| 1777544830 | 15° C | 31% | 1031.5 hPa | - | - | - | - |
| 1777544530 | 14.44° C | 31% | 1031.5 hPa | - | - | - | - |
| 1777544230 | 14.44° C | 32% | 1031.7 hPa | - | - | - | - |
| 1777543929 | 14.44° C | 32% | 1031.7 hPa | - | - | - | - |
| 1777543629 | 14.44° C | 32% | 1031.7 hPa | - | - | - | - |
| 1777543030 | 14.44° C | 32% | 1031.5 hPa | - | - | - | - |
* Rain since midnight (hover to see other rain measurements)
** Current wind speed in m/s (hover to see current wind gust speed)